Change the Weather History Date:

Saturday, December 31, 2011

  Actual Average Record
Temperature  
Mean Temperature 74 °F -  
Max Temperature 82 °F - - ()
Min Temperature 66 °F - - ()
Cooling Degree Days 9    
Growing Degree Days 24 (Base 50)    
Moisture  
Dew Point 69 °F    
Average Humidity 89    
Maximum Humidity 100    
Minimum Humidity 65    
Precipitation  
Precipitation 0.00 in - - ()
Sea Level Pressure  
Sea Level Pressure 30.05 in    
Wind  
Wind Speed 7 mph (SSE)    
Max Wind Speed 17 mph    
Max Gust Speed 22 mph    
Visibility 5 miles    
Events Fog    
T = Trace of Precipitation, MM = Missing Value Source: NWS Daily Summary

Daily Weather History Graph

Daily Weather History Graph

Search for Another Location

Airport or City:

Trip Planner

Search our weather history database for the weather conditions in past years. The results will help you decide how hot, cold, wet, or windy it might be!

Date:

Astronomy

Dec. 31, 2011 Rise Set
Actual Time 7:16 AM CST 5:48 PM CST
Civil Twilight 6:51 AM CST 6:13 PM CST
Nautical Twilight 6:22 AM CST 6:42 PM CST
Astronomical Twilight 5:54 AM CST 7:10 PM CST
Moon 11:45 AM CST (12/31) No Moon Set
Length of Visible Light 11h 22m
Length of Day
10h 31m
Waxing Crescent, 45% of the Moon is Illuminated
Dec 31
Waxing Crescent
Jan 1
First Quarter
Jan 9
Full
Jan 16
Last Quarter
Jan 23
New

Hourly Weather History & Observations

Time (CST) Temp. Heat Index Dew Point Humidity Pressure Visibility Wind Dir Wind Speed Gust Speed Precip Events Conditions
12:53 AM 66.0 °F - 66.0 °F 100% 30.03 in 0.2 mi South 4.6 mph - N/A Fog Fog
1:53 AM 66.9 °F - 66.9 °F 100% 30.02 in 0.2 mi South 5.8 mph - N/A Fog Fog
2:53 AM 66.9 °F - 66.9 °F 100% 30.01 in 0.2 mi South 4.6 mph - N/A Fog Fog
3:53 AM 66.9 °F - 66.9 °F 100% 30.02 in 0.2 mi Calm Calm - N/A Fog Fog
4:33 AM 66.2 °F - 66.2 °F 100% 30.02 in 0.5 mi SSE 3.5 mph - N/A Fog Fog
4:53 AM 66.9 °F - 66.9 °F 100% 30.02 in 0.5 mi South 4.6 mph - N/A Fog Fog
5:08 AM 66.2 °F - 66.2 °F 100% 30.03 in 0.2 mi SSE 4.6 mph - N/A Fog Fog
6:53 AM 68.0 °F - 66.9 °F 96% 30.05 in 0.2 mi South 4.6 mph - N/A Fog Fog
7:53 AM 66.9 °F - 66.9 °F 100% 30.07 in 0.2 mi South 4.6 mph - N/A Fog Fog
9:25 AM 69.8 °F - 69.8 °F 100% 30.10 in 0.5 mi SSE 5.8 mph - N/A Fog Fog
9:50 AM 69.8 °F - 69.8 °F 100% 30.10 in 1.2 mi South 6.9 mph - N/A   Overcast
9:53 AM 70.0 °F - 69.1 °F 97% 30.10 in 1.5 mi South 5.8 mph - N/A   Overcast
10:10 AM 69.8 °F - 69.8 °F 100% 30.10 in 3.0 mi South 5.8 mph - N/A   Overcast
10:35 AM 73.4 °F - 71.6 °F 94% 30.10 in 7.0 mi South 11.5 mph - N/A   Mostly Cloudy
10:53 AM 75.0 °F - 70.0 °F 84% 30.09 in 8.0 mi South 13.8 mph - N/A   Scattered Clouds
11:32 AM 77.0 °F - 69.8 °F 78% 30.07 in 9.0 mi South 8.1 mph - N/A   Mostly Cloudy
11:53 AM 80.1 °F 83.2 °F 70.0 °F 71% 30.06 in 9.0 mi South 12.7 mph - N/A   Mostly Cloudy
12:26 PM 78.8 °F - 69.8 °F 74% 30.04 in 10.0 mi South 11.5 mph - N/A   Mostly Cloudy
12:50 PM 80.6 °F 83.9 °F 69.8 °F 70% 30.03 in 10.0 mi South 12.7 mph - N/A   Mostly Cloudy
12:53 PM 80.1 °F 82.9 °F 69.1 °F 69% 30.02 in 10.0 mi South 15.0 mph - N/A   Mostly Cloudy
1:15 PM 82.4 °F 86.3 °F 69.8 °F 66% 30.01 in 10.0 mi SSE 16.1 mph 21.9 mph N/A   Scattered Clouds
2:53 PM 81.0 °F 83.8 °F 68.0 °F 65% 29.99 in 10.0 mi SSE 17.3 mph - N/A   Mostly Cloudy
3:53 PM 80.1 °F 82.7 °F 68.0 °F 67% 29.99 in 10.0 mi SSE 12.7 mph - N/A   Clear
4:53 PM 78.1 °F - 68.0 °F 71% 30.00 in 10.0 mi SSE 13.8 mph - N/A   Clear
5:53 PM 73.9 °F - 70.0 °F 87% 30.02 in 9.0 mi SSE 10.4 mph - N/A   Clear
6:53 PM 72.0 °F - 70.0 °F 93% 30.03 in 9.0 mi SSE 9.2 mph - N/A   Clear
7:53 PM 71.1 °F - 69.1 °F 93% 30.04 in 8.0 mi SE 6.9 mph - N/A   Clear
8:53 PM 69.1 °F - 68.0 °F 96% 30.06 in 6.0 mi SSE 6.9 mph - N/A   Clear
9:53 PM 70.0 °F - 69.1 °F 97% 30.07 in 8.0 mi SE 6.9 mph - N/A   Clear
11:53 PM 71.1 °F - 70.0 °F 96% 30.10 in 7.0 mi South 4.6 mph - N/A   Partly Cloudy